TimeEDT,TemperatureF,Dew PointF,Humidity,Sea Level PressureIn,VisibilityMPH,Wind Direction,Wind SpeedMPH,Gust SpeedMPH,PrecipitationIn,Events,Conditions,WindDirDegrees,DateUTC
12:01 AM,59.0,55.4,88,29.98,10.0,SSW,3.5,-,N/A,,Overcast,200,2013-05-09 04:01:00
12:22 AM,59.0,55.4,88,29.98,10.0,Calm,Calm,-,N/A,,Overcast,0,2013-05-09 04:22:00
12:52 AM,59.0,55.9,90,29.96,10.0,SSE,4.6,-,N/A,,Overcast,150,2013-05-09 04:52:00
1:52 AM,59.0,55.0,87,29.96,10.0,West,4.6,-,N/A,,Mostly Cloudy,260,2013-05-09 05:52:00
2:08 AM,59.0,55.4,88,29.95,10.0,WNW,5.8,-,N/A,,Mostly Cloudy,300,2013-05-09 06:08:00
2:22 AM,57.2,55.4,94,29.95,10.0,WNW,3.5,-,N/A,,Scattered Clouds,300,2013-05-09 06:22:00
2:52 AM,57.2,53.6,88,29.94,10.0,West,4.6,-,N/A,,Mostly Cloudy,280,2013-05-09 06:52:00
3:52 AM,57.9,54.0,87,29.94,10.0,West,4.6,-,N/A,,Overcast,260,2013-05-09 07:52:00
4:52 AM,57.0,53.1,87,29.93,10.0,Calm,Calm,-,N/A,,Overcast,0,2013-05-09 08:52:00
5:52 AM,57.0,53.1,87,29.95,8.0,Calm,Calm,-,N/A,,Overcast,0,2013-05-09 09:52:00
6:52 AM,57.0,53.1,87,29.97,8.0,SW,3.5,-,N/A,,Overcast,230,2013-05-09 10:52:00
7:52 AM,57.0,53.1,87,29.99,6.0,WSW,6.9,-,N/A,,Overcast,240,2013-05-09 11:52:00
8:17 AM,57.2,53.6,88,29.99,6.0,SSW,6.9,-,N/A,,Overcast,200,2013-05-09 12:17:00
8:44 AM,57.2,53.6,88,29.99,7.0,SW,5.8,-,N/A,,Overcast,230,2013-05-09 12:44:00
8:52 AM,57.9,54.0,87,29.99,7.0,South,4.6,-,N/A,,Overcast,190,2013-05-09 12:52:00
9:39 AM,60.8,53.6,77,30.00,10.0,SW,4.6,-,N/A,,Overcast,220,2013-05-09 13:39:00
9:45 AM,60.8,53.6,77,30.00,10.0,SSW,4.6,-,N/A,,Overcast,210,2013-05-09 13:45:00
9:46 AM,60.8,53.6,77,30.00,10.0,SSW,4.6,-,N/A,,Overcast,200,2013-05-09 13:46:00
9:52 AM,60.1,54.0,80,30.00,10.0,South,4.6,-,N/A,,Overcast,190,2013-05-09 13:52:00
10:52 AM,61.0,55.0,81,30.00,10.0,South,5.8,-,N/A,,Overcast,170,2013-05-09 14:52:00
11:52 AM,64.9,57.0,75,29.99,10.0,SSW,6.9,-,N/A,,Mostly Cloudy,200,2013-05-09 15:52:00
12:22 PM,66.2,57.2,73,29.99,10.0,South,10.4,-,N/A,,Scattered Clouds,170,2013-05-09 16:22:00
12:52 PM,66.9,59.0,76,29.98,10.0,South,11.5,-,N/A,,Scattered Clouds,170,2013-05-09 16:52:00
1:52 PM,73.4,55.4,53,29.97,10.0,WNW,5.8,-,N/A,,Mostly Cloudy,290,2013-05-09 17:52:00
2:52 PM,73.0,53.1,49,29.96,10.0,West,9.2,-,N/A,,Mostly Cloudy,280,2013-05-09 18:52:00
3:13 PM,73.4,53.6,50,29.95,10.0,West,4.6,-,N/A,,Mostly Cloudy,260,2013-05-09 19:13:00
3:52 PM,73.4,55.4,53,29.95,10.0,WSW,9.2,-,N/A,,Mostly Cloudy,240,2013-05-09 19:52:00
4:52 PM,73.0,57.0,57,29.95,10.0,SSW,5.8,-,N/A,,Mostly Cloudy,200,2013-05-09 20:52:00
5:52 PM,69.1,61.0,75,29.96,10.0,SSE,4.6,-,0.05,,Mostly Cloudy,150,2013-05-09 21:52:00
6:52 PM,70.0,61.0,73,29.96,10.0,SSW,3.5,-,N/A,,Scattered Clouds,200,2013-05-09 22:52:00
7:18 PM,69.8,57.2,64,29.96,10.0,South,4.6,-,N/A,,Mostly Cloudy,180,2013-05-09 23:18:00
7:52 PM,69.8,60.8,73,29.98,10.0,Calm,Calm,-,N/A,Rain,Light Rain,0,2013-05-09 23:52:00
8:52 PM,68.0,57.9,70,29.99,10.0,West,3.5,-,0.01,,Mostly Cloudy,280,2013-05-10 00:52:00
9:52 PM,64.4,60.8,88,30.01,10.0,SW,4.6,-,N/A,,Scattered Clouds,220,2013-05-10 01:52:00
10:52 PM,64.9,61.0,87,30.00,10.0,South,4.6,-,N/A,,Partly Cloudy,190,2013-05-10 02:52:00
11:52 PM,63.0,60.1,90,30.01,10.0,South,4.6,-,N/A,,Scattered Clouds,180,2013-05-10 03:52:00